K7ZQU-7 Weather Reports


Display with metric or nautical units.
time (UTC)temp
F
wind
direction
speed
MPH
gust
MPH
rain 1hr
in
rain 24hr
in
rain mn
in
humidity
%
barometer
mb
20260506222407 66 316 4.0 5.0 0.00 0.00 0.00 43 1020.3
20260506221909 65 284 4.0 6.0 0.00 0.00 0.00 43 1020.3
20260506220409 66 293 4.0 9.0 0.00 0.00 0.00 41 1020.3
20260506215910 66 252 6.0 2.0 0.00 0.00 0.00 41 1020.3
20260506215412 66 255 3.0 0.0 0.00 0.00 0.00 45 1020.3
20260506214913 65 319 4.0 4.0 0.00 0.00 0.00 45 1020.2
20260506213912 65 307 6.0 6.0 0.00 0.00 0.00 44 1020.2
20260506213414 65 339 6.0 4.0 0.00 0.00 0.00 44 1020.3
20260506211913 66 293 5.0 7.0 0.00 0.00 0.00 43 1020.2
20260506211438 65 249 3.0 1.0 0.00 0.00 0.00 45 1020.3
20260506210915 66 315 7.0 6.0 0.00 0.00 0.00 43 1020.2
20260506210416 66 269 6.0 10.0 0.00 0.00 0.00 42 1020.1
20260506205918 66 300 7.0 5.0 0.00 0.00 0.00 42 1020.1
20260506205416 66 312 6.0 12.0 0.00 0.00 0.00 43 1020.1
20260506204917 66 274 6.0 6.0 0.00 0.00 0.00 44 1020.1
20260506204418 66 321 6.0 9.0 0.00 0.00 0.00 44 1020.1
20260506203421 65 285 5.0 7.0 0.00 0.00 0.00 45 1019.9
20260506202919 66 329 7.0 10.0 0.00 0.00 0.00 44 1020.1
20260506202420 66 281 6.0 4.0 0.00 0.00 0.00 44 1019.9
20260506201423 67 284 4.0 11.0 0.00 0.00 0.00 45 1019.8
20260506200422 66 295 3.0 8.0 0.00 0.00 0.00 45 1019.8
20260506195924 66 288 4.0 1.0 0.00 0.00 0.00 46 1019.8
20260506195425 65 288 5.0 12.0 0.00 0.00 0.00 45 1019.9
20260506193430 66 314 5.0 7.0 0.00 0.00 0.00 43 1019.8
20260506192928 66 302 6.0 3.0 0.00 0.00 0.00 41 1019.9
20260506191930 66 293 3.0 6.0 0.00 0.00 0.00 44 1019.8
20260506191429 66 277 3.0 1.0 0.00 0.00 0.00 43 1019.8
20260506190930 65 293 4.0 5.0 0.00 0.00 0.00 45 1019.9
20260506190431 65 290 4.0 7.0 0.00 0.00 0.00 44 1020.1
20260506185932 65 315 6.0 4.0 0.00 0.00 0.00 45 1020.1
20260506185434 64 266 2.0 2.0 0.00 0.00 0.00 49 1020.1
20260506184932 64 295 3.0 3.0 0.00 0.00 0.00 48 1020.1
20260506184433 64 315 2.0 6.0 0.00 0.00 0.00 49 1019.9
20260506183934 64 287 3.0 6.0 0.00 0.00 0.00 49 1020.1
20260506183435 64 321 3.0 0.0 0.00 0.00 0.00 49 1020.1
20260506182937 63 328 3.0 3.0 0.00 0.00 0.00 50 1020.1
20260506182447 62 304 4.0 5.0 0.00 0.00 0.00 53 1020.1
20260506181936 62 255 4.0 2.0 0.00 0.00 0.00 53 1020.1
20260506181437 61 283 2.0 2.0 0.00 0.00 0.00 55 1020.1
20260506180440 61 238 5.0 1.0 0.00 0.00 0.00 56 1020.1
20260506175938 60 10 2.0 4.0 0.00 0.00 0.00 56 1019.9
20260506175439 60 301 3.0 3.0 0.00 0.00 0.00 58 1019.8
20260506174940 60 293 2.0 0.0 0.00 0.00 0.00 56 1019.8
20260506174441 59 256 4.0 2.0 0.00 0.00 0.00 58 1019.8
20260506173942 59 264 3.0 0.0 0.00 0.00 0.00 58 1019.8
20260506173441 59 264 4.0 1.0 0.00 0.00 0.00 58 1019.9
20260506172941 59 314 1.0 2.0 0.00 0.00 0.00 57 1019.9
20260506171944 59 316 3.0 3.0 0.00 0.00 0.00 53 1019.7
20260506171445 59 312 5.0 5.0 0.00 0.00 0.00 57 1019.7
20260506170943 59 308 1.0 2.0 0.00 0.00 0.00 60 1019.6
20260506170444 58 284 4.0 4.0 0.00 0.00 0.00 60 1019.5
20260506165945 58 269 4.0 1.0 0.00 0.00 0.00 58 1019.4
20260506165447 58 305 2.0 4.0 0.00 0.00 0.00 63 1019.4
20260506163447 56 302 1.0 1.0 0.00 0.00 0.00 70 1018.9
20260506162948 55 285 3.0 1.0 0.00 0.00 0.00 73 1018.9
20260506162449 55 280 1.0 2.0 0.00 0.00 0.00 74 1018.9
20260506161948 54 315 2.0 5.0 0.00 0.00 0.00 75 1018.9
20260506161449 55 323 3.0 2.0 0.00 0.00 0.00 73 1018.9
20260506160950 55 315 5.0 5.0 0.00 0.00 0.00 72 1018.8
20260506160451 55 321 2.0 2.0 0.00 0.00 0.00 75 1018.8
20260506155952 54 323 5.0 3.0 0.00 0.00 0.00 74 1018.9
20260506155450 54 277 3.0 1.0 0.00 0.00 0.00 76 1018.9
20260506154951 54 319 3.0 4.0 0.00 0.00 0.00 78 1019.0
20260506154452 53 294 4.0 6.0 0.00 0.00 0.00 78 1019.0
20260506153953 53 301 4.0 5.0 0.00 0.00 0.00 79 1018.9
20260506153454 52 315 3.0 6.0 0.00 0.00 0.00 82 1018.9
20260506152953 51 315 4.0 3.0 0.00 0.00 0.00 83 1018.8
20260506151955 50 269 3.0 2.0 0.00 0.00 0.00 85 1018.6
20260506151456 50 345 3.0 3.0 0.00 0.00 0.00 84 1018.8
20260506150957 50 274 4.0 2.0 0.00 0.00 0.00 88 1018.8
20260506150455 49 314 3.0 3.0 0.00 0.00 0.00 90 1018.8
20260506145457 48 290 2.0 1.0 0.00 0.00 0.00 95 1018.8
20260506144958 48 347 4.0 0.0 0.00 0.00 0.00 96 1018.6
20260506144459 47 307 4.0 5.0 0.00 0.00 0.00 97 1018.6
20260506143957 47 315 3.0 1.0 0.00 0.00 0.00 98 1018.6
20260506143458 46 259 0.0 0.0 0.00 0.00 0.00 98 1018.5
20260506142959 46 294 3.0 3.0 0.00 0.00 0.00 98 1018.5
20260506142500 46 309 2.0 3.0 0.00 0.00 0.00 98 1018.5
20260506142001 45 311 1.0 4.0 0.00 0.00 0.00 98 1018.5
20260506141500 45 319 0.0 0.0 0.00 0.00 0.00 98 1018.5
20260506141000 45 250 0.0 0.0 0.00 0.00 0.00 98 1018.4
20260506140501 45 307 0.0 0.0 0.00 0.00 0.00 98 1018.4
20260506135503 45 295 6.0 4.0 0.00 0.00 0.00 98 1018.3
20260506135002 45 323 1.0 2.0 0.00 0.00 0.00 98 1018.4
20260506133005 45 290 0.0 0.0 0.00 0.00 0.00 98 1018.1
20260506132504 45 294 2.0 5.0 0.00 0.00 0.00 98 1018.1
20260506132005 44 305 0.0 0.0 0.00 0.00 0.00 98 1017.9
20260506130508 44 328 2.0 3.0 0.00 0.00 0.00 98 1017.7
20260506130006 44 300 2.0 1.0 0.00 0.00 0.00 98 1017.6
20260506125507 44 335 3.0 4.0 0.00 0.00 0.00 98 1017.6
20260506123508 44 345 0.0 0.0 0.00 0.00 0.00 97 1017.5
20260506122510 44 345 0.0 0.0 0.00 0.00 0.00 97 1017.5
20260506122011 44 345 0.0 0.0 0.00 0.00 0.00 97 1017.5
20260506121512 44 345 0.0 0.0 0.00 0.00 0.00 97 1017.5
20260506115514 44 345 0.0 0.0 0.00 0.00 0.00 97 1017.5
20260506115015 44 345 0.0 0.0 0.00 0.00 0.00 97 1017.5
20260506114513 44 345 0.0 0.0 0.00 0.00 0.00 97 1017.5
20260506114014 44 345 0.0 0.0 0.00 0.00 0.00 97 1017.3
20260506113515 44 345 0.0 0.0 0.00 0.00 0.00 97 1017.3
20260506113017 44 271 0.0 0.0 0.00 0.00 0.00 97 1017.2
20260506112518 44 333 0.0 0.0 0.00 0.00 0.00 96 1017.3
20260506112016 44 333 0.0 0.0 0.00 0.00 0.00 97 1017.2
20260506111517 44 333 0.0 0.0 0.00 0.00 0.00 97 1017.3
20260506111018 44 333 0.0 0.0 0.00 0.00 0.00 97 1017.3
20260506110520 44 333 0.0 0.0 0.00 0.00 0.00 97 1017.3
20260506110021 44 333 0.0 0.0 0.00 0.00 0.00 97 1017.2
20260506105519 44 333 0.0 0.0 0.00 0.00 0.00 97 1017.2
20260506104521 44 333 0.0 0.0 0.00 0.00 0.00 96 1017.1
20260506104022 44 333 0.0 0.0 0.00 0.00 0.00 96 1017.1
20260506103523 44 333 0.0 0.0 0.00 0.00 0.00 96 1017.0
20260506102023 45 356 0.0 0.0 0.00 0.00 0.00 96 1017.0
20260506101524 45 356 1.0 0.0 0.00 0.00 0.00 97 1016.9
20260506100524 45 288 0.0 0.0 0.00 0.00 0.00 96 1016.9
20260506095526 45 330 0.0 0.0 0.00 0.00 0.00 96 1016.9
20260506095027 45 330 0.0 0.0 0.00 0.00 0.00 96 1017.0
20260506094528 45 330 0.0 0.0 0.00 0.00 0.00 96 1017.0
20260506093527 45 330 0.0 0.0 0.00 0.00 0.00 97 1017.0
20260506092529 45 330 0.0 0.0 0.00 0.00 0.00 96 1017.0
20260506092031 45 330 0.0 0.0 0.00 0.00 0.00 96 1017.0
20260506091529 45 330 0.0 0.0 0.00 0.00 0.00 97 1017.0
20260506091031 45 330 0.0 0.0 0.00 0.00 0.00 97 1017.0
20260506090531 45 330 0.0 0.0 0.00 0.00 0.00 97 1017.1
20260506085533 46 330 0.0 0.0 0.00 0.00 0.00 97 1017.1
20260506084532 45 304 0.0 0.0 0.00 0.00 0.00 97 1017.1
20260506083035 45 304 0.0 0.0 0.00 0.00 0.00 96 1017.1
20260506082034 46 304 0.0 0.0 0.00 0.00 0.00 96 1017.1
20260506081037 46 304 0.0 0.0 0.00 0.00 0.00 96 1017.1
20260506080538 46 304 0.0 0.0 0.00 0.00 0.00 96 1017.1
20260506073039 46 304 0.0 0.0 0.00 0.00 0.00 96 1017.0
20260506072542 46 304 0.0 0.0 0.00 0.00 0.00 96 1017.0
20260506072042 46 304 0.0 0.0 0.00 0.00 0.00 95 1017.0
20260506071543 46 304 0.0 0.0 0.00 0.00 0.00 95 1017.1
20260506071041 46 304 0.0 0.0 0.00 0.00 0.00 95 1017.1
20260506070542 46 304 0.0 0.0 0.00 0.00 0.00 94 1017.0
20260506062046 47 325 0.0 0.0 0.00 0.00 0.00 92 1016.9
20260506061547 47 325 0.0 0.0 0.00 0.00 0.00 92 1016.9
20260506061048 48 325 0.0 0.0 0.00 0.00 0.00 93 1016.7
20260506051056 49 284 0.0 0.0 0.00 0.00 0.00 85 1016.5
20260506045058 50 284 0.0 0.0 0.00 0.00 0.00 84 1016.5
20260506044559 50 314 0.0 0.0 0.00 0.00 0.00 84 1016.5
20260506044057 50 304 1.0 3.0 0.00 0.00 0.00 84 1016.5
20260506043558 50 11 0.0 0.0 0.00 0.00 0.00 83 1016.5
20260506043059 51 11 0.0 0.0 0.00 0.00 0.00 84 1016.5
20260506042600 51 11 0.0 0.0 0.00 0.00 0.00 83 1016.5
20260506042101 51 277 0.0 0.0 0.00 0.00 0.00 83 1016.5
20260506041600 51 314 1.0 2.0 0.00 0.00 0.00 82 1016.4
20260506041101 52 316 1.0 4.0 0.00 0.00 0.00 82 1016.4
20260506040602 52 333 2.0 1.0 0.00 0.00 0.00 80 1016.4
20260506035103 53 307 2.0 1.0 0.00 0.00 0.00 78 1016.2
20260506034105 54 293 0.0 0.0 0.00 0.00 0.00 75 1016.0
20260506032605 55 304 0.0 0.0 0.00 0.00 0.00 72 1015.9
20260506032106 56 304 0.0 0.0 0.00 0.00 0.00 71 1015.8
20260506030610 57 304 1.0 0.0 0.00 0.00 0.00 69 1015.7
20260506025609 58 238 3.0 1.0 0.00 0.00 0.00 68 1015.7
20260506025110 59 293 1.0 2.0 0.00 0.00 0.00 67 1015.7
20260506024611 59 240 1.0 0.0 0.00 0.00 0.00 66 1015.7
20260506024112 59 252 0.0 0.0 0.00 0.00 0.00 65 1015.6
20260506022613 60 294 2.0 1.0 0.00 0.00 0.00 63 1015.4
20260506022114 61 314 0.0 0.0 0.00 0.00 0.00 62 1015.4
20260506021615 61 274 2.0 1.0 0.00 0.00 0.00 60 1015.4
20260506021113 62 290 2.0 3.0 0.00 0.00 0.00 60 1015.4
20260506020614 62 269 1.0 0.0 0.00 0.00 0.00 59 1015.3
20260506020115 62 316 2.0 2.0 0.00 0.00 0.00 58 1015.3
20260506014616 63 263 3.0 4.0 0.00 0.00 0.00 55 1015.3
20260506014117 64 329 3.0 5.0 0.00 0.00 0.00 54 1015.3
20260506013618 64 315 4.0 2.0 0.00 0.00 0.00 53 1015.2
20260506013119 65 301 5.0 2.0 0.00 0.00 0.00 51 1015.2
20260506012620 65 330 4.0 3.0 0.00 0.00 0.00 51 1015.2
20260506011619 65 312 2.0 5.0 0.00 0.00 0.00 50 1015.1
20260506011120 65 302 4.0 6.0 0.00 0.00 0.00 48 1015.1
20260506010621 65 283 4.0 0.0 0.00 0.00 0.00 47 1015.1
20260506010122 66 326 3.0 2.0 0.00 0.00 0.00 48 1015.0
20260506005621 66 304 2.0 4.0 0.00 0.00 0.00 46 1015.0
20260506005122 66 312 4.0 5.0 0.00 0.00 0.00 47 1015.0
20260506004623 66 312 5.0 4.0 0.00 0.00 0.00 46 1014.9
20260506004124 66 295 3.0 4.0 0.00 0.00 0.00 45 1014.9
20260506003625 66 335 5.0 2.0 0.00 0.00 0.00 45 1015.0
20260506002624 66 315 2.0 4.0 0.00 0.00 0.00 45 1014.9
20260506002125 66 290 1.0 3.0 0.00 0.00 0.00 46 1014.9
20260506001128 66 322 4.0 4.0 0.00 0.00 0.00 48 1014.7
20260506000632 66 333 3.0 6.0 0.00 0.00 0.00 48 1014.7
20260506000127 66 294 8.0 4.0 0.00 0.00 0.00 46 1014.9
20260505235628 66 338 6.0 2.0 0.00 0.00 0.00 46 1014.7
20260505235130 67 290 3.0 7.0 0.00 0.00 0.00 45 1014.9
20260505234631 67 307 7.0 4.0 0.00 0.00 0.00 44 1014.7
20260505233630 67 347 6.0 3.0 0.00 0.00 0.00 43 1014.7
20260505233131 67 284 3.0 5.0 0.00 0.00 0.00 46 1014.7
20260505232633 67 321 5.0 5.0 0.00 0.00 0.00 46 1014.7
20260505232134 67 240 4.0 0.0 0.00 0.00 0.00 44 1014.7
20260505231632 68 315 4.0 5.0 0.00 0.00 0.00 45 1014.7
20260505231133 68 295 4.0 3.0 0.00 0.00 0.00 45 1014.6
20260505230634 67 229 5.0 0.0 0.00 0.00 0.00 45 1014.6
20260505230136 67 298 5.0 10.0 0.00 0.00 0.00 47 1014.9
20260505225135 67 332 5.0 3.0 0.00 0.00 0.00 45 1014.7
20260505223638 67 323 3.0 3.0 0.00 0.00 0.00 47 1014.7
20260505223140 66 328 4.0 6.0 0.00 0.00 0.00 50 1014.7